Time,TemperatureF,DewpointF,PressureIn,WindDirection,WindDirectionDegrees,WindSpeedMPH,WindSpeedGustMPH,Humidity,HourlyPrecipIn,Conditions,Clouds,dailyrainin,SolarRadiationWatts/m^2,SoftwareType,DateUTC
2013-04-19 00:00:00,52.3,42.4,30.23,SSW,207,0.0,0.0,69,0.00,,,0.00,0001,Weather View 32 v70,2013-04-19 07:00:00,
2013-04-19 00:10:00,52.2,43.4,30.23,SSW,207,0.0,0.0,72,0.00,,,0.00,0002,Weather View 32 v70,2013-04-19 07:10:00,
2013-04-19 00:15:00,52.0,43.2,30.23,WSW,252,0.0,0.0,72,0.00,,,0.00,0001,Weather View 32 v70,2013-04-19 07:15:00,
2013-04-19 00:20:00,51.9,43.5,30.24,SSW,207,0.0,0.0,73,0.00,,,0.00,0002,Weather View 32 v70,2013-04-19 07:20:00,
2013-04-19 00:25:00,51.6,43.2,30.23,SSW,207,0.0,0.0,73,0.00,,,0.00,0002,Weather View 32 v70,2013-04-19 07:25:00,
2013-04-19 00:35:00,51.3,43.3,30.23,SSW,207,0.0,0.0,74,0.00,,,0.00,0001,Weather View 32 v70,2013-04-19 07:35:00,
2013-04-19 00:40:00,51.1,43.1,30.23,WSW,252,0.0,0.0,74,0.00,,,0.00,0002,Weather View 32 v70,2013-04-19 07:40:00,
2013-04-19 00:45:00,51.2,42.8,30.23,SW,229,0.0,0.0,73,0.00,,,0.00,0002,Weather View 32 v70,2013-04-19 07:45:00,
2013-04-19 00:50:00,51.3,42.9,30.23,SSW,207,0.0,0.0,73,0.00,,,0.00,0001,Weather View 32 v70,2013-04-19 07:50:00,
2013-04-19 00:55:00,51.3,42.9,30.23,SSW,207,0.0,0.0,73,0.00,,,0.00,0001,Weather View 32 v70,2013-04-19 07:55:00,
2013-04-19 01:05:00,51.2,43.5,30.24,WSW,252,0.0,0.0,75,0.00,,,0.00,0001,Weather View 32 v70,2013-04-19 08:05:00,
2013-04-19 01:10:00,51.1,43.8,30.23,South,184,0.0,0.0,76,0.00,,,0.00,0002,Weather View 32 v70,2013-04-19 08:10:00,
2013-04-19 01:15:00,50.9,43.6,30.23,SSE,162,0.0,0.0,76,0.00,,,0.00,0001,Weather View 32 v70,2013-04-19 08:15:00,
2013-04-19 01:20:00,50.6,43.3,30.23,SW,229,0.0,0.0,76,0.00,,,0.00,0001,Weather View 32 v70,2013-04-19 08:20:00,
2013-04-19 01:27:00,50.4,43.4,30.23,SE,139,0.0,0.0,77,0.00,,,0.00,0001,Weather View 32 v70,2013-04-19 08:27:00,
2013-04-19 01:35:00,49.8,43.2,30.23,SSE,162,0.0,0.0,78,0.00,,,0.00,0001,Weather View 32 v70,2013-04-19 08:35:00,
2013-04-19 01:40:00,49.5,42.9,30.23,SSW,207,0.0,0.0,78,0.00,,,0.00,0001,Weather View 32 v70,2013-04-19 08:40:00,
2013-04-19 01:45:00,49.3,43.1,30.23,SSW,207,0.0,0.0,79,0.00,,,0.00,0001,Weather View 32 v70,2013-04-19 08:45:00,
2013-04-19 01:50:00,49.3,43.4,30.23,SE,139,0.0,0.0,80,0.00,,,0.00,0002,Weather View 32 v70,2013-04-19 08:50:00,
2013-04-19 02:00:00,49.0,43.4,30.23,SSE,162,0.0,0.0,81,0.00,,,0.00,0001,Weather View 32 v70,2013-04-19 09:00:00,
2013-04-19 02:05:00,48.9,43.3,30.23,SSW,207,0.0,0.0,81,0.00,,,0.00,0001,Weather View 32 v70,2013-04-19 09:05:00,
2013-04-19 02:10:00,48.7,43.4,30.23,SW,229,0.0,0.0,82,0.00,,,0.00,0001,Weather View 32 v70,2013-04-19 09:10:00,
2013-04-19 02:15:00,48.7,43.8,30.22,SSW,207,0.0,0.0,83,0.00,,,0.00,0001,Weather View 32 v70,2013-04-19 09:15:00,
2013-04-19 02:20:00,48.8,43.9,30.22,WSW,252,0.0,0.0,83,0.00,,,0.00,0002,Weather View 32 v70,2013-04-19 09:20:00,
2013-04-19 02:28:00,48.8,44.2,30.23,SW,229,0.0,0.0,84,0.00,,,0.00,0001,Weather View 32 v70,2013-04-19 09:28:00,
2013-04-19 02:35:00,48.5,43.9,30.22,SE,139,0.0,0.0,84,0.00,,,0.00,0002,Weather View 32 v70,2013-04-19 09:35:00,
2013-04-19 02:40:00,48.2,43.9,30.22,SSE,162,0.0,0.0,85,0.00,,,0.00,0002,Weather View 32 v70,2013-04-19 09:40:00,
2013-04-19 02:45:00,48.0,43.7,30.22,SSW,207,0.0,0.0,85,0.00,,,0.00,0002,Weather View 32 v70,2013-04-19 09:45:00,
2013-04-19 02:55:00,48.3,44.3,30.22,South,184,0.0,0.0,86,0.00,,,0.00,0001,Weather View 32 v70,2013-04-19 09:55:00,
2013-04-19 03:00:00,48.2,44.2,30.22,SW,229,0.0,0.0,86,0.00,,,0.00,0001,Weather View 32 v70,2013-04-19 10:00:00,
2013-04-19 03:05:00,48.1,44.4,30.22,ESE,117,0.0,0.0,87,0.00,,,0.00,0001,Weather View 32 v70,2013-04-19 10:05:00,
2013-04-19 03:10:00,47.9,44.2,30.22,SSE,162,0.0,0.0,87,0.00,,,0.00,0001,Weather View 32 v70,2013-04-19 10:10:00,
2013-04-19 03:20:00,47.6,44.2,30.22,SSE,162,0.0,0.0,88,0.00,,,0.00,0001,Weather View 32 v70,2013-04-19 10:20:00,
2013-04-19 03:25:00,47.5,44.1,30.22,South,184,0.0,0.0,88,0.00,,,0.00,0001,Weather View 32 v70,2013-04-19 10:25:00,
2013-04-19 03:30:00,47.3,44.2,30.22,South,184,0.0,0.0,89,0.00,,,0.00,0001,Weather View 32 v70,2013-04-19 10:30:00,
2013-04-19 03:35:00,47.3,44.2,30.22,SSW,207,0.0,0.0,89,0.00,,,0.00,0001,Weather View 32 v70,2013-04-19 10:35:00,
2013-04-19 03:45:00,47.2,44.4,30.23,South,184,0.0,0.0,90,0.00,,,0.00,0002,Weather View 32 v70,2013-04-19 10:45:00,
2013-04-19 03:50:00,47.1,44.3,30.23,SSE,162,0.0,0.0,90,0.00,,,0.00,0002,Weather View 32 v70,2013-04-19 10:50:00,
2013-04-19 03:55:00,47.1,44.6,30.23,SSE,162,0.0,0.0,91,0.00,,,0.00,0001,Weather View 32 v70,2013-04-19 10:55:00,
2013-04-19 04:00:00,47.0,44.5,30.23,South,184,0.0,0.0,91,0.00,,,0.00,0001,Weather View 32 v70,2013-04-19 11:00:00,
2013-04-19 04:05:00,47.0,44.8,30.23,South,184,0.0,0.0,92,0.00,,,0.00,0001,Weather View 32 v70,2013-04-19 11:05:00,
2013-04-19 04:15:00,46.9,45.0,30.23,WSW,252,0.0,0.0,93,0.00,,,0.00,0002,Weather View 32 v70,2013-04-19 11:15:00,
2013-04-19 04:20:00,46.9,45.0,30.23,South,184,0.0,0.0,93,0.00,,,0.00,0002,Weather View 32 v70,2013-04-19 11:20:00,
2013-04-19 04:25:00,47.0,45.4,30.23,South,184,0.0,0.0,94,0.00,,,0.00,0001,Weather View 32 v70,2013-04-19 11:25:00,
2013-04-19 04:30:00,47.0,45.4,30.23,South,184,0.0,0.0,94,0.00,,,0.00,0001,Weather View 32 v70,2013-04-19 11:30:00,
2013-04-19 04:40:00,46.8,45.2,30.23,SSE,162,0.0,0.0,94,0.00,,,0.00,0001,Weather View 32 v70,2013-04-19 11:40:00,
2013-04-19 04:45:00,46.7,45.1,30.23,SSE,162,0.0,0.0,94,0.00,,,0.00,0002,Weather View 32 v70,2013-04-19 11:45:00,
2013-04-19 04:50:00,46.4,44.8,30.23,SSE,162,0.0,0.0,94,0.00,,,0.00,0002,Weather View 32 v70,2013-04-19 11:50:00,
2013-04-19 04:55:00,46.2,44.6,30.23,SSE,162,0.0,0.0,94,0.00,,,0.00,0002,Weather View 32 v70,2013-04-19 11:55:00,
2013-04-19 05:00:00,46.1,44.7,30.23,South,184,0.0,0.0,95,0.00,,,0.00,0001,Weather View 32 v70,2013-04-19 12:00:00,
2013-04-19 05:10:00,46.2,45.1,30.23,South,184,0.0,0.0,96,0.00,,,0.00,0002,Weather View 32 v70,2013-04-19 12:10:00,
2013-04-19 05:15:00,46.3,45.2,30.24,WNW,297,0.0,0.0,96,0.00,,,0.00,0001,Weather View 32 v70,2013-04-19 12:15:00,
2013-04-19 05:20:00,46.3,45.5,30.24,WSW,252,0.0,0.0,97,0.00,,,0.00,0001,Weather View 32 v70,2013-04-19 12:20:00,
2013-04-19 05:25:00,46.3,45.5,30.24,South,184,0.0,0.0,97,0.00,,,0.00,0001,Weather View 32 v70,2013-04-19 12:25:00,
2013-04-19 05:35:00,46.4,45.6,30.24,SSW,207,0.0,0.0,97,0.00,,,0.00,0002,Weather View 32 v70,2013-04-19 12:35:00,
2013-04-19 05:40:00,46.3,45.8,30.24,South,184,0.0,0.0,98,0.00,,,0.00,0001,Weather View 32 v70,2013-04-19 12:40:00,
2013-04-19 05:45:00,46.2,45.7,30.24,SSE,162,0.0,0.0,98,0.00,,,0.00,0001,Weather View 32 v70,2013-04-19 12:45:00,
2013-04-19 05:50:00,46.0,45.5,30.24,South,184,0.0,0.0,98,0.00,,,0.00,0001,Weather View 32 v70,2013-04-19 12:50:00,
2013-04-19 05:55:00,45.7,45.2,30.24,SSE,162,0.0,0.0,98,0.00,,,0.00,0002,Weather View 32 v70,2013-04-19 12:55:00,
2013-04-19 06:05:00,45.6,45.3,30.24,South,184,0.0,0.0,99,0.00,,,0.00,0002,Weather View 32 v70,2013-04-19 13:05:00,
2013-04-19 06:10:00,45.5,45.5,30.24,South,184,0.0,0.0,100,0.00,,,0.00,0002,Weather View 32 v70,2013-04-19 13:10:00,
2013-04-19 06:15:00,45.6,45.6,30.24,WSW,252,0.0,0.0,100,0.00,,,0.00,0002,Weather View 32 v70,2013-04-19 13:15:00,
2013-04-19 06:20:00,45.7,45.7,30.25,WNW,297,0.0,0.0,100,0.00,,,0.00,0003,Weather View 32 v70,2013-04-19 13:20:00,
2013-04-19 06:30:00,45.6,45.6,30.25,South,184,0.0,0.0,100,0.00,,,0.00,0007,Weather View 32 v70,2013-04-19 13:30:00,
2013-04-19 06:40:00,45.6,45.6,30.25,SSW,207,0.0,0.0,100,0.00,,,0.00,0017,Weather View 32 v70,2013-04-19 13:40:00,
2013-04-19 06:45:00,45.7,45.7,30.26,SSW,207,0.0,0.0,100,0.00,,,0.00,0018,Weather View 32 v70,2013-04-19 13:45:00,
2013-04-19 06:55:00,46.0,46.0,30.26,South,184,0.0,0.0,100,0.00,,,0.00,0031,Weather View 32 v70,2013-04-19 13:55:00,
2013-04-19 07:00:00,46.0,46.0,30.26,SSE,162,0.0,0.0,100,0.00,,,0.00,0061,Weather View 32 v70,2013-04-19 14:00:00,
2013-04-19 07:05:00,46.1,46.1,30.26,SSE,162,0.0,0.0,100,0.00,,,0.00,0069,Weather View 32 v70,2013-04-19 14:05:00,
2013-04-19 07:10:00,46.6,46.6,30.26,SSE,162,0.0,0.0,100,0.00,,,0.00,0132,Weather View 32 v70,2013-04-19 14:10:00,
2013-04-19 07:20:00,48.0,48.0,30.26,SE,139,0.0,0.0,100,0.00,,,0.00,0164,Weather View 32 v70,2013-04-19 14:20:00,
2013-04-19 07:25:00,48.7,48.7,30.25,ESE,117,1.0,2.0,100,0.00,,,0.00,0181,Weather View 32 v70,2013-04-19 14:25:00,
2013-04-19 07:30:00,49.4,49.4,30.26,SE,139,0.0,2.0,100,0.00,,,0.00,0198,Weather View 32 v70,2013-04-19 14:30:00,
2013-04-19 07:35:00,50.2,50.2,30.26,ESE,117,1.0,2.0,100,0.00,,,0.00,0215,Weather View 32 v70,2013-04-19 14:35:00,
2013-04-19 07:40:00,50.8,50.3,30.26,SE,139,1.0,3.0,98,0.00,,,0.00,0226,Weather View 32 v70,2013-04-19 14:40:00,
2013-04-19 07:50:00,52.0,50.6,30.26,ESE,117,0.0,3.0,95,0.00,,,0.00,0208,Weather View 32 v70,2013-04-19 14:50:00,
2013-04-19 07:55:00,52.4,50.4,30.26,NE,49,1.0,3.0,93,0.00,,,0.00,0231,Weather View 32 v70,2013-04-19 14:55:00,
2013-04-19 08:00:00,53.1,50.8,30.26,WNW,297,0.0,3.0,92,0.00,,,0.00,0270,Weather View 32 v70,2013-04-19 15:00:00,
2013-04-19 08:05:00,53.7,50.5,30.26,ENE,72,2.0,3.0,89,0.00,,,0.00,0283,Weather View 32 v70,2013-04-19 15:05:00,
2013-04-19 08:15:00,54.1,50.0,30.26,NNE,27,2.0,3.0,86,0.00,,,0.00,0314,Weather View 32 v70,2013-04-19 15:15:00,
2013-04-19 08:20:00,54.0,49.9,30.26,North,4,2.0,4.0,86,0.00,,,0.00,0326,Weather View 32 v70,2013-04-19 15:20:00,
2013-04-19 08:25:00,53.8,49.7,30.26,NNW,342,1.0,4.0,86,0.00,,,0.00,0341,Weather View 32 v70,2013-04-19 15:25:00,
2013-04-19 08:30:00,54.4,50.0,30.26,NE,49,1.0,4.0,85,0.00,,,0.00,0354,Weather View 32 v70,2013-04-19 15:30:00,
2013-04-19 08:40:00,55.5,50.4,30.26,NNW,342,1.0,4.0,83,0.00,,,0.00,0376,Weather View 32 v70,2013-04-19 15:40:00,
2013-04-19 08:45:00,55.9,50.5,30.26,NNW,342,2.0,4.0,82,0.00,,,0.00,0390,Weather View 32 v70,2013-04-19 15:45:00,
2013-04-19 08:50:00,56.9,51.1,30.26,ESE,117,1.0,4.0,81,0.00,,,0.00,0404,Weather View 32 v70,2013-04-19 15:50:00,
2013-04-19 08:55:00,58.2,52.0,30.26,SSW,207,0.0,4.0,80,0.00,,,0.00,0417,Weather View 32 v70,2013-04-19 15:55:00,
2013-04-19 09:00:00,58.7,51.5,30.26,North,4,3.0,4.0,77,0.00,,,0.00,0430,Weather View 32 v70,2013-04-19 16:00:00,
2013-04-19 09:10:00,59.1,51.2,30.26,NE,49,2.0,4.0,75,0.00,,,0.00,0453,Weather View 32 v70,2013-04-19 16:10:00,
2013-04-19 09:15:00,60.0,52.0,30.25,ESE,117,0.0,4.0,75,0.00,,,0.00,0471,Weather View 32 v70,2013-04-19 16:15:00,
2013-04-19 09:20:00,60.3,51.6,30.25,ENE,72,3.0,4.0,73,0.00,,,0.00,0490,Weather View 32 v70,2013-04-19 16:20:00,
2013-04-19 09:25:00,60.4,51.7,30.26,ENE,72,2.0,4.0,73,0.00,,,0.00,0512,Weather View 32 v70,2013-04-19 16:25:00,
2013-04-19 09:30:00,61.5,52.4,30.25,SE,139,1.0,4.0,72,0.00,,,0.00,0541,Weather View 32 v70,2013-04-19 16:30:00,
2013-04-19 09:40:00,62.9,51.7,30.25,ENE,72,1.0,4.0,67,0.00,,,0.00,0590,Weather View 32 v70,2013-04-19 16:40:00,
2013-04-19 09:45:00,63.7,51.7,30.25,NNE,27,1.0,4.0,65,0.00,,,0.00,0599,Weather View 32 v70,2013-04-19 16:45:00,
2013-04-19 09:50:00,64.4,51.9,30.25,NE,49,2.0,4.0,64,0.00,,,0.00,0468,Weather View 32 v70,2013-04-19 16:50:00,
2013-04-19 09:55:00,65.4,52.4,30.25,NNW,342,1.0,4.0,63,0.00,,,0.00,0639,Weather View 32 v70,2013-04-19 16:55:00,
2013-04-19 10:00:00,65.2,51.4,30.25,ESE,117,1.0,4.0,61,0.00,,,0.00,0362,Weather View 32 v70,2013-04-19 17:00:00,
2013-04-19 10:10:00,66.9,52.5,30.25,SSW,207,1.0,4.0,60,0.00,,,0.00,0767,Weather View 32 v70,2013-04-19 17:10:00,
2013-04-19 10:15:00,66.8,51.5,30.25,SE,139,1.0,4.0,58,0.00,,,0.00,0375,Weather View 32 v70,2013-04-19 17:15:00,
2013-04-19 10:20:00,66.7,51.9,30.25,SSE,162,1.0,4.0,59,0.00,,,0.00,0423,Weather View 32 v70,2013-04-19 17:20:00,
2013-04-19 10:25:00,67.2,51.9,30.25,NNE,27,3.0,4.0,58,0.00,,,0.00,0447,Weather View 32 v70,2013-04-19 17:25:00,
2013-04-19 10:30:00,67.2,51.9,30.25,NE,49,1.0,4.0,58,0.00,,,0.00,0308,Weather View 32 v70,2013-04-19 17:30:00,
2013-04-19 10:40:00,67.5,51.7,30.24,ESE,117,3.0,5.0,57,0.00,,,0.00,0451,Weather View 32 v70,2013-04-19 17:40:00,
2013-04-19 10:45:00,67.9,51.6,30.24,ESE,117,4.0,5.0,56,0.00,,,0.00,0669,Weather View 32 v70,2013-04-19 17:45:00,
2013-04-19 10:50:00,68.3,52.0,30.24,ENE,72,3.0,5.0,56,0.00,,,0.00,0709,Weather View 32 v70,2013-04-19 17:50:00,
2013-04-19 10:55:00,69.3,52.9,30.24,SE,139,1.0,5.0,56,0.00,,,0.00,0730,Weather View 32 v70,2013-04-19 17:55:00,
2013-04-19 11:00:00,70.5,53.0,30.24,SSE,162,1.0,7.0,54,0.00,,,0.00,0754,Weather View 32 v70,2013-04-19 18:00:00,
2013-04-19 11:10:00,71.1,52.5,30.24,SE,139,2.0,7.0,52,0.00,,,0.00,0651,Weather View 32 v70,2013-04-19 18:10:00,
2013-04-19 11:15:00,71.4,53.3,30.24,ESE,117,2.0,7.0,53,0.00,,,0.00,0701,Weather View 32 v70,2013-04-19 18:15:00,
2013-04-19 11:20:00,71.7,53.1,30.23,SE,139,3.0,7.0,52,0.00,,,0.00,0743,Weather View 32 v70,2013-04-19 18:20:00,
2013-04-19 11:25:00,72.2,53.5,30.24,SSE,162,4.0,7.0,52,0.00,,,0.00,0744,Weather View 32 v70,2013-04-19 18:25:00,
2013-04-19 11:33:00,72.5,53.3,30.24,South,184,1.0,7.0,51,0.00,,,0.00,0756,Weather View 32 v70,2013-04-19 18:33:00,
2013-04-19 11:40:00,73.5,54.7,30.23,South,184,1.0,7.0,52,0.00,,,0.00,0751,Weather View 32 v70,2013-04-19 18:40:00,
2013-04-19 11:45:00,74.7,54.8,30.23,NE,49,1.0,7.0,50,0.00,,,0.00,0766,Weather View 32 v70,2013-04-19 18:45:00,
2013-04-19 11:50:00,74.4,54.5,30.23,SSE,162,3.0,7.0,50,0.00,,,0.00,0770,Weather View 32 v70,2013-04-19 18:50:00,
2013-04-19 11:55:00,74.3,54.4,30.22,North,4,2.0,7.0,50,0.00,,,0.00,0783,Weather View 32 v70,2013-04-19 18:55:00,
2013-04-19 12:05:00,74.4,53.9,30.22,West,274,3.0,6.0,49,0.00,,,0.00,0768,Weather View 32 v70,2013-04-19 19:05:00,
2013-04-19 12:10:00,74.6,53.6,30.22,NW,319,3.0,6.0,48,0.00,,,0.00,0788,Weather View 32 v70,2013-04-19 19:10:00,
2013-04-19 12:20:00,76.0,54.8,30.21,SSW,207,2.0,6.0,48,0.00,,,0.00,0779,Weather View 32 v70,2013-04-19 19:20:00,
2013-04-19 12:25:00,76.5,54.7,30.21,West,274,2.0,6.0,47,0.00,,,0.00,0792,Weather View 32 v70,2013-04-19 19:25:00,
2013-04-19 12:30:00,76.8,55.0,30.21,North,4,4.0,6.0,47,0.00,,,0.00,0795,Weather View 32 v70,2013-04-19 19:30:00,
2013-04-19 12:40:00,78.6,56.0,30.20,SE,139,2.0,6.0,46,0.00,,,0.00,0796,Weather View 32 v70,2013-04-19 19:40:00,
2013-04-19 12:45:00,78.7,56.1,30.20,South,184,2.0,6.0,46,0.00,,,0.00,0799,Weather View 32 v70,2013-04-19 19:45:00,
2013-04-19 12:50:00,78.8,56.2,30.20,SSW,207,2.0,6.0,46,0.00,,,0.00,0801,Weather View 32 v70,2013-04-19 19:50:00,
2013-04-19 12:55:00,79.2,56.0,30.19,ENE,72,4.0,6.0,45,0.00,,,0.00,0804,Weather View 32 v70,2013-04-19 19:55:00,
2013-04-19 13:05:00,79.8,56.5,30.19,NE,49,2.0,6.0,45,0.00,,,0.00,0804,Weather View 32 v70,2013-04-19 20:05:00,
2013-04-19 13:10:00,79.5,55.6,30.19,North,4,3.0,6.0,44,0.00,,,0.00,0799,Weather View 32 v70,2013-04-19 20:10:00,
2013-04-19 13:20:00,79.8,53.3,30.18,NW,319,8.0,10.0,40,0.00,,,0.00,0805,Weather View 32 v70,2013-04-19 20:20:00,
2013-04-19 13:25:00,79.7,52.5,30.18,WNW,297,6.0,10.0,39,0.00,,,0.00,0803,Weather View 32 v70,2013-04-19 20:25:00,
2013-04-19 13:30:00,79.6,51.7,30.18,WNW,297,3.0,10.0,38,0.00,,,0.00,0797,Weather View 32 v70,2013-04-19 20:30:00,
2013-04-19 13:40:00,79.7,51.8,30.17,North,4,3.0,10.0,38,0.00,,,0.00,0800,Weather View 32 v70,2013-04-19 20:40:00,
2013-04-19 13:45:00,79.2,52.0,30.17,WNW,297,6.0,11.0,39,0.00,,,0.00,0796,Weather View 32 v70,2013-04-19 20:45:00,
2013-04-19 13:50:00,79.9,52.6,30.17,ENE,72,4.0,11.0,39,0.00,,,0.00,0795,Weather View 32 v70,2013-04-19 20:50:00,
2013-04-19 13:55:00,80.0,52.7,30.16,NE,49,4.0,11.0,39,0.00,,,0.00,0790,Weather View 32 v70,2013-04-19 20:55:00,
2013-04-19 14:05:00,80.9,53.5,30.16,SW,229,3.0,11.0,39,0.00,,,0.00,0783,Weather View 32 v70,2013-04-19 21:05:00,
2013-04-19 14:10:00,80.1,52.8,30.16,WSW,252,3.0,11.0,39,0.00,,,0.00,0781,Weather View 32 v70,2013-04-19 21:10:00,
2013-04-19 14:20:00,80.6,53.3,30.15,WNW,297,4.0,11.0,39,0.00,,,0.00,0773,Weather View 32 v70,2013-04-19 21:20:00,
2013-04-19 14:25:00,80.2,52.2,30.15,WNW,297,10.0,11.0,38,0.00,,,0.00,0769,Weather View 32 v70,2013-04-19 21:25:00,
2013-04-19 14:30:00,80.6,52.6,30.15,WNW,297,5.0,11.0,38,0.00,,,0.00,0762,Weather View 32 v70,2013-04-19 21:30:00,
2013-04-19 14:40:00,80.0,50.6,30.14,NW,319,10.0,13.0,36,0.00,,,0.00,0753,Weather View 32 v70,2013-04-19 21:40:00,
2013-04-19 14:45:00,80.7,51.9,30.14,West,274,4.0,13.0,37,0.00,,,0.00,0747,Weather View 32 v70,2013-04-19 21:45:00,
2013-04-19 14:50:00,81.3,53.2,30.14,NW,319,5.0,13.0,38,0.00,,,0.00,0740,Weather View 32 v70,2013-04-19 21:50:00,
2013-04-19 14:55:00,81.2,52.4,30.14,NNW,342,3.0,13.0,37,0.00,,,0.00,0734,Weather View 32 v70,2013-04-19 21:55:00,
2013-04-19 15:05:00,80.5,51.7,30.14,WSW,252,6.0,13.0,37,0.00,,,0.00,0720,Weather View 32 v70,2013-04-19 22:05:00,
2013-04-19 15:10:00,80.8,52.0,30.13,West,274,4.0,13.0,37,0.00,,,0.00,0713,Weather View 32 v70,2013-04-19 22:10:00,
2013-04-19 15:15:00,80.0,51.3,30.13,West,274,10.0,14.0,37,0.00,,,0.00,0707,Weather View 32 v70,2013-04-19 22:15:00,
2013-04-19 15:20:00,80.6,52.6,30.13,WNW,297,7.0,14.0,38,0.00,,,0.00,0697,Weather View 32 v70,2013-04-19 22:20:00,
2013-04-19 15:25:00,80.2,52.2,30.13,West,274,4.0,14.0,38,0.00,,,0.00,0689,Weather View 32 v70,2013-04-19 22:25:00,
2013-04-19 15:35:00,79.5,52.3,30.12,West,274,8.0,15.0,39,0.00,,,0.00,0672,Weather View 32 v70,2013-04-19 22:35:00,
2013-04-19 15:45:00,80.0,53.4,30.12,WSW,252,6.0,15.0,40,0.00,,,0.00,0656,Weather View 32 v70,2013-04-19 22:45:00,
2013-04-19 15:50:00,79.4,52.2,30.11,WNW,297,6.0,15.0,39,0.00,,,0.00,0640,Weather View 32 v70,2013-04-19 22:50:00,
2013-04-19 16:00:00,79.4,52.9,30.11,WNW,297,7.0,15.0,40,0.00,,,0.00,0622,Weather View 32 v70,2013-04-19 23:00:00,
2013-04-19 16:05:00,79.6,53.7,30.11,NW,319,2.0,15.0,41,0.00,,,0.00,0612,Weather View 32 v70,2013-04-19 23:05:00,
2013-04-19 16:10:00,79.5,53.7,30.11,NNW,342,9.0,15.0,41,0.00,,,0.00,0600,Weather View 32 v70,2013-04-19 23:10:00,
2013-04-19 16:15:00,79.1,54.0,30.11,WSW,252,7.0,15.0,42,0.00,,,0.00,0589,Weather View 32 v70,2013-04-19 23:15:00,
2013-04-19 16:20:00,78.8,54.3,30.11,WNW,297,7.0,15.0,43,0.00,,,0.00,0573,Weather View 32 v70,2013-04-19 23:20:00,
2013-04-19 16:25:00,78.5,54.1,30.11,WSW,252,7.0,16.0,43,0.00,,,0.00,0565,Weather View 32 v70,2013-04-19 23:25:00,
2013-04-19 16:35:00,77.4,54.9,30.11,SW,229,11.0,19.0,46,0.00,,,0.00,0535,Weather View 32 v70,2013-04-19 23:35:00,
2013-04-19 16:45:00,77.2,55.3,30.11,NW,319,4.0,19.0,47,0.00,,,0.00,0508,Weather View 32 v70,2013-04-19 23:45:00,
2013-04-19 16:50:00,77.0,54.0,30.11,WSW,252,8.0,19.0,45,0.00,,,0.00,0502,Weather View 32 v70,2013-04-19 23:50:00,
2013-04-19 16:55:00,76.7,53.7,30.10,SSW,207,7.0,19.0,45,0.00,,,0.00,0488,Weather View 32 v70,2013-04-19 23:55:00,
2013-04-19 17:05:00,76.3,53.3,30.10,SSW,207,11.0,19.0,45,0.00,,,0.00,0468,Weather View 32 v70,2013-04-20 00:05:00,
2013-04-19 17:10:00,76.5,54.1,30.10,West,274,7.0,19.0,46,0.00,,,0.00,0459,Weather View 32 v70,2013-04-20 00:10:00,
2013-04-19 17:15:00,76.7,54.3,30.10,WSW,252,10.0,19.0,46,0.00,,,0.00,0446,Weather View 32 v70,2013-04-20 00:15:00,
2013-04-19 17:20:00,76.6,53.6,30.10,WSW,252,4.0,19.0,45,0.00,,,0.00,0430,Weather View 32 v70,2013-04-20 00:20:00,
2013-04-19 17:30:00,76.9,54.5,30.10,SW,229,7.0,19.0,46,0.00,,,0.00,0401,Weather View 32 v70,2013-04-20 00:30:00,
2013-04-19 17:35:00,76.7,54.9,30.10,WSW,252,4.0,18.0,47,0.00,,,0.00,0388,Weather View 32 v70,2013-04-20 00:35:00,
2013-04-19 17:40:00,76.7,54.9,30.10,WSW,252,7.0,18.0,47,0.00,,,0.00,0376,Weather View 32 v70,2013-04-20 00:40:00,
2013-04-19 17:45:00,76.1,54.9,30.10,SSW,207,5.0,18.0,48,0.00,,,0.00,0363,Weather View 32 v70,2013-04-20 00:45:00,
2013-04-19 17:50:00,75.9,55.3,30.09,WNW,297,12.0,18.0,49,0.00,,,0.00,0348,Weather View 32 v70,2013-04-20 00:50:00,
2013-04-19 18:00:00,76.0,56.0,30.09,WSW,252,4.0,18.0,50,0.00,,,0.00,0322,Weather View 32 v70,2013-04-20 01:00:00,
2013-04-19 18:05:00,76.0,56.0,30.09,West,274,6.0,18.0,50,0.00,,,0.00,0311,Weather View 32 v70,2013-04-20 01:05:00,
2013-04-19 18:10:00,75.8,55.2,30.09,SW,229,4.0,16.0,49,0.00,,,0.00,0297,Weather View 32 v70,2013-04-20 01:10:00,
2013-04-19 18:15:00,76.0,54.2,30.09,NW,319,12.0,16.0,47,0.00,,,0.00,0284,Weather View 32 v70,2013-04-20 01:15:00,
2013-04-19 18:20:00,76.0,54.2,30.09,West,274,11.0,16.0,47,0.00,,,0.00,0270,Weather View 32 v70,2013-04-20 01:20:00,
2013-04-19 18:30:00,76.0,53.7,30.09,West,274,4.0,16.0,46,0.00,,,0.00,0240,Weather View 32 v70,2013-04-20 01:30:00,
2013-04-19 18:35:00,76.0,53.7,30.09,SSW,207,4.0,16.0,46,0.00,,,0.00,0225,Weather View 32 v70,2013-04-20 01:35:00,
2013-04-19 18:40:00,76.0,53.7,30.08,SSW,207,9.0,16.0,46,0.00,,,0.00,0211,Weather View 32 v70,2013-04-20 01:40:00,
2013-04-19 18:45:00,75.6,53.9,30.08,WSW,252,6.0,16.0,47,0.00,,,0.00,0194,Weather View 32 v70,2013-04-20 01:45:00,
2013-04-19 18:50:00,75.2,53.5,30.08,SW,229,7.0,15.0,47,0.00,,,0.00,0027,Weather View 32 v70,2013-04-20 01:50:00,
2013-04-19 18:55:00,74.9,53.2,30.08,WSW,252,2.0,15.0,47,0.00,,,0.00,0025,Weather View 32 v70,2013-04-20 01:55:00,
2013-04-19 19:05:00,74.4,52.8,30.08,WNW,297,3.0,15.0,47,0.00,,,0.00,0022,Weather View 32 v70,2013-04-20 02:05:00,
2013-04-19 19:10:00,74.1,52.5,30.08,NNE,27,2.0,15.0,47,0.00,,,0.00,0020,Weather View 32 v70,2013-04-20 02:10:00,
2013-04-19 19:15:00,73.8,52.2,30.08,WNW,297,9.0,15.0,47,0.00,,,0.00,0019,Weather View 32 v70,2013-04-20 02:15:00,
2013-04-19 19:20:00,73.6,52.6,30.08,SW,229,7.0,15.0,48,0.00,,,0.00,0017,Weather View 32 v70,2013-04-20 02:20:00,
2013-04-19 19:25:00,73.3,52.4,30.08,NNE,27,3.0,14.0,48,0.00,,,0.00,0015,Weather View 32 v70,2013-04-20 02:25:00,
2013-04-19 19:30:00,73.1,52.2,30.08,SSW,207,5.0,14.0,48,0.00,,,0.00,0014,Weather View 32 v70,2013-04-20 02:30:00,
2013-04-19 19:37:00,72.8,52.5,30.08,WSW,252,9.0,14.0,49,0.00,,,0.00,0012,Weather View 32 v70,2013-04-20 02:37:00,
2013-04-19 19:45:00,72.4,52.1,30.08,West,274,4.0,14.0,49,0.00,,,0.00,0007,Weather View 32 v70,2013-04-20 02:45:00,
2013-04-19 19:50:00,72.3,52.0,30.08,SSW,207,4.0,14.0,49,0.00,,,0.00,0005,Weather View 32 v70,2013-04-20 02:50:00,
2013-04-19 19:55:00,72.1,52.4,30.08,WSW,252,3.0,14.0,50,0.00,,,0.00,0003,Weather View 32 v70,2013-04-20 02:55:00,
2013-04-19 20:00:00,71.7,52.0,30.08,South,184,3.0,14.0,50,0.00,,,0.00,0002,Weather View 32 v70,2013-04-20 03:00:00,
2013-04-19 20:10:00,71.2,52.1,30.08,SSE,162,0.0,13.0,51,0.00,,,0.00,0002,Weather View 32 v70,2013-04-20 03:10:00,
2013-04-19 20:15:00,70.3,53.8,30.08,ESE,117,3.0,13.0,56,0.00,,,0.00,0002,Weather View 32 v70,2013-04-20 03:15:00,
2013-04-19 20:20:00,69.3,54.8,30.08,ESE,117,3.0,13.0,60,0.00,,,0.00,0001,Weather View 32 v70,2013-04-20 03:20:00,
2013-04-19 20:25:00,68.5,54.9,30.08,East,94,1.0,13.0,62,0.00,,,0.00,0002,Weather View 32 v70,2013-04-20 03:25:00,
2013-04-19 20:30:00,67.8,55.1,30.08,SSW,207,1.0,13.0,64,0.00,,,0.00,0002,Weather View 32 v70,2013-04-20 03:30:00,
2013-04-19 20:37:00,67.3,55.5,30.08,SE,139,0.0,13.0,66,0.00,,,0.00,0001,Weather View 32 v70,2013-04-20 03:37:00,
2013-04-19 20:45:00,66.3,55.4,30.08,SSW,207,0.0,13.0,68,0.00,,,0.00,0002,Weather View 32 v70,2013-04-20 03:45:00,
2013-04-19 20:50:00,65.8,55.3,30.08,SE,139,0.0,11.0,69,0.00,,,0.00,0002,Weather View 32 v70,2013-04-20 03:50:00,
2013-04-19 20:55:00,65.3,54.8,30.08,West,274,0.0,11.0,69,0.00,,,0.00,0001,Weather View 32 v70,2013-04-20 03:55:00,
2013-04-19 21:00:00,65.1,54.6,30.08,West,274,1.0,9.0,69,0.00,,,0.00,0001,Weather View 32 v70,2013-04-20 04:00:00,
2013-04-19 21:05:00,65.4,54.1,30.08,WSW,252,2.0,5.0,67,0.00,,,0.00,0001,Weather View 32 v70,2013-04-20 04:05:00,
2013-04-19 21:10:00,66.2,53.6,30.08,WSW,252,5.0,6.0,64,0.00,,,0.00,0002,Weather View 32 v70,2013-04-20 04:10:00,
2013-04-19 21:15:00,67.2,53.7,30.08,SW,229,5.0,6.0,62,0.00,,,0.00,0001,Weather View 32 v70,2013-04-20 04:15:00,
2013-04-19 21:20:00,67.8,53.8,30.08,West,274,5.0,9.0,61,0.00,,,0.00,0001,Weather View 32 v70,2013-04-20 04:20:00,
2013-04-19 21:25:00,68.4,53.5,30.09,WNW,297,1.0,9.0,59,0.00,,,0.00,0001,Weather View 32 v70,2013-04-20 04:25:00,
2013-04-19 21:30:00,67.1,54.5,30.09,ESE,117,7.0,9.0,64,0.00,,,0.00,0001,Weather View 32 v70,2013-04-20 04:30:00,
2013-04-19 21:35:00,65.4,54.5,30.09,East,94,3.0,9.0,68,0.00,,,0.00,0002,Weather View 32 v70,2013-04-20 04:35:00,
2013-04-19 21:40:00,64.1,54.9,30.09,SSE,162,1.0,9.0,72,0.00,,,0.00,0001,Weather View 32 v70,2013-04-20 04:40:00,
2013-04-19 21:45:00,63.5,55.0,30.09,SSW,207,0.0,9.0,74,0.00,,,0.00,0001,Weather View 32 v70,2013-04-20 04:45:00,
2013-04-19 21:50:00,63.2,55.1,30.09,NE,49,1.0,9.0,75,0.00,,,0.00,0002,Weather View 32 v70,2013-04-20 04:50:00,
2013-04-19 21:55:00,63.0,55.3,30.09,SSW,207,4.0,9.0,76,0.00,,,0.00,0001,Weather View 32 v70,2013-04-20 04:55:00,
2013-04-19 22:00:00,62.5,55.2,30.09,WSW,252,1.0,9.0,77,0.00,,,0.00,0001,Weather View 32 v70,2013-04-20 05:00:00,
2013-04-19 22:05:00,62.6,55.6,30.09,SSE,162,0.0,9.0,78,0.00,,,0.00,0002,Weather View 32 v70,2013-04-20 05:05:00,
2013-04-19 22:15:00,61.6,55.0,30.09,SE,139,0.0,9.0,79,0.00,,,0.00,0001,Weather View 32 v70,2013-04-20 05:15:00,
2013-04-19 22:20:00,61.3,55.1,30.09,SE,139,3.0,9.0,80,0.00,,,0.00,0001,Weather View 32 v70,2013-04-20 05:20:00,
2013-04-19 22:25:00,61.2,55.3,30.09,WNW,297,0.0,8.0,81,0.00,,,0.00,0001,Weather View 32 v70,2013-04-20 05:25:00,
2013-04-19 22:30:00,61.1,55.5,30.09,ESE,117,2.0,7.0,82,0.00,,,0.00,0001,Weather View 32 v70,2013-04-20 05:30:00,
2013-04-19 22:35:00,60.8,55.3,30.09,South,184,0.0,6.0,82,0.00,,,0.00,0001,Weather View 32 v70,2013-04-20 05:35:00,
2013-04-19 22:45:00,60.5,55.6,30.09,SE,139,1.0,6.0,84,0.00,,,0.00,0001,Weather View 32 v70,2013-04-20 05:45:00,
2013-04-19 22:50:00,60.4,55.9,30.09,SSE,162,0.0,5.0,85,0.00,,,0.00,0002,Weather View 32 v70,2013-04-20 05:50:00,
2013-04-19 22:55:00,60.0,55.8,30.09,SE,139,0.0,4.0,86,0.00,,,0.00,0001,Weather View 32 v70,2013-04-20 05:55:00,
2013-04-19 23:00:00,59.7,55.8,30.09,SE,139,1.0,6.0,87,0.00,,,0.00,0002,Weather View 32 v70,2013-04-20 06:00:00,
2013-04-19 23:05:00,59.3,55.7,30.09,ESE,117,1.0,6.0,88,0.00,,,0.00,0001,Weather View 32 v70,2013-04-20 06:05:00,
2013-04-19 23:10:00,59.4,56.1,30.09,ESE,117,5.0,6.0,89,0.00,,,0.00,0001,Weather View 32 v70,2013-04-20 06:10:00,
2013-04-19 23:15:00,59.2,56.3,30.09,ESE,117,6.0,7.0,90,0.00,,,0.00,0002,Weather View 32 v70,2013-04-20 06:15:00,
2013-04-19 23:25:00,58.9,56.3,30.09,SSW,207,0.0,7.0,91,0.00,,,0.00,0001,Weather View 32 v70,2013-04-20 06:25:00,
2013-04-19 23:35:00,58.5,56.2,30.09,South,184,0.0,7.0,92,0.00,,,0.00,0002,Weather View 32 v70,2013-04-20 06:35:00,
2013-04-19 23:40:00,58.3,56.3,30.09,ESE,117,1.0,7.0,93,0.00,,,0.00,0001,Weather View 32 v70,2013-04-20 06:40:00,
2013-04-19 23:45:00,58.2,56.2,30.09,SSW,207,1.0,7.0,93,0.00,,,0.00,0001,Weather View 32 v70,2013-04-20 06:45:00,
2013-04-19 23:50:00,58.1,56.4,30.09,ESE,117,3.0,7.0,94,0.00,,,0.00,0001,Weather View 32 v70,2013-04-20 06:50:00,